AAL522 KSLC-KLAX

Flight info

Callsign AAL522
Flight time N/A
Altitude 36000
Route ARCHZ1 WINEN LAKRR HAKMN ANJLL4
Aircraft A320/M-SDE3FGHIRWY/LB1

Departure

Time N/A
Airport Salt Lake City International Airport (KSLC)

Arrival

Time 2026-04-23 02:24
Airport Los Angeles International Airport (KLAX)
Time Latitude Longitude Altitude Speed Heading
2026-04-23 01:38 36.05003 -114.33529 35852 ft 373 kts 236°
2026-04-23 01:38 36.01555 -114.38335 35851 ft 373 kts 235°
2026-04-23 01:39 35.98095 -114.43112 35853 ft 373 kts 235°
2026-04-23 01:39 35.93870 -114.46914 35868 ft 404 kts 207°
2026-04-23 01:40 35.91012 -114.47484 35868 ft 429 kts 192°
2026-04-23 01:40 35.88006 -114.47432 35828 ft 433 kts 191°
2026-04-23 01:40 35.84998 -114.47357 35223 ft 433 kts 191°
2026-04-23 01:40 35.81986 -114.47286 34497 ft 434 kts 191°
2026-04-23 01:41 35.78966 -114.47225 34024 ft 433 kts 191°
2026-04-23 01:41 35.75944 -114.47169 33846 ft 435 kts 191°
2026-04-23 01:41 35.69868 -114.47065 33853 ft 437 kts 191°
2026-04-23 01:42 35.63791 -114.46963 33881 ft 437 kts 191°
2026-04-23 01:42 35.57712 -114.46886 33898 ft 436 kts 191°
2026-04-23 01:43 35.51894 -114.47737 33909 ft 408 kts 212°
2026-04-23 01:43 35.49448 -114.49320 33915 ft 391 kts 225°
2026-04-23 01:43 35.47479 -114.51513 33921 ft 378 kts 237°
2026-04-23 01:44 35.44578 -114.56817 33913 ft 377 kts 243°
2026-04-23 01:44 35.41710 -114.62319 33914 ft 387 kts 242°
2026-04-23 01:45 35.38776 -114.67911 33927 ft 392 kts 242°
2026-04-23 01:45 35.35813 -114.73521 33923 ft 392 kts 242°
2026-04-23 01:46 35.32840 -114.79131 33938 ft 392 kts 242°
2026-04-23 01:46 35.29868 -114.84741 33939 ft 393 kts 242°
2026-04-23 01:47 35.26890 -114.90356 33942 ft 394 kts 242°
2026-04-23 01:47 35.23913 -114.95993 33939 ft 395 kts 242°
2026-04-23 01:48 35.20945 -115.01598 33912 ft 395 kts 242°
2026-04-23 01:48 35.17947 -115.07246 33953 ft 397 kts 242°
2026-04-23 01:49 35.14927 -115.12922 33954 ft 398 kts 242°
2026-04-23 01:49 35.11894 -115.18591 33970 ft 398 kts 242°
2026-04-23 01:50 35.08862 -115.24262 33966 ft 398 kts 242°
2026-04-23 01:50 35.05834 -115.29926 33983 ft 399 kts 242°
2026-04-23 01:51 35.04352 -115.32679 33969 ft 385 kts 242°
2026-04-23 01:51 35.02899 -115.35371 33969 ft 376 kts 242°
2026-04-23 01:51 35.00044 -115.40692 33985 ft 373 kts 242°
2026-04-23 01:52 34.97202 -115.45998 33986 ft 373 kts 242°
2026-04-23 01:52 34.94356 -115.51291 33987 ft 373 kts 242°
2026-04-23 01:53 34.91496 -115.56596 33994 ft 374 kts 242°
2026-04-23 01:53 34.88637 -115.61888 33949 ft 374 kts 242°
2026-04-23 01:54 34.86257 -115.66301 33985 ft 376 kts 242°
2026-04-23 01:54 34.82916 -115.72470 33986 ft 375 kts 241°
2026-04-23 01:55 34.80034 -115.77760 33987 ft 375 kts 241°
2026-04-23 01:55 34.77643 -115.82159 33986 ft 375 kts 241°
2026-04-23 01:56 34.74769 -115.87451 33988 ft 375 kts 242°
2026-04-23 01:56 34.71890 -115.92741 33983 ft 375 kts 241°
2026-04-23 01:57 34.69002 -115.98021 33979 ft 373 kts 242°
2026-04-23 01:57 34.66136 -116.03267 33983 ft 372 kts 242°
2026-04-23 01:58 34.63269 -116.08505 33807 ft 374 kts 242°
2026-04-23 01:58 34.61831 -116.11133 33356 ft 373 kts 241°
2026-04-23 01:58 34.60393 -116.13760 32903 ft 374 kts 241°
2026-04-23 01:59 34.58968 -116.16359 32458 ft 376 kts 241°
2026-04-23 01:59 34.57512 -116.19012 32031 ft 378 kts 241°
2026-04-23 01:59 34.56051 -116.21672 31607 ft 380 kts 241°
2026-04-23 01:59 34.54582 -116.24343 31184 ft 381 kts 240°
2026-04-23 02:00 34.53107 -116.27028 30765 ft 384 kts 240°
2026-04-23 02:00 34.51621 -116.29731 30357 ft 386 kts 240°
2026-04-23 02:00 34.50122 -116.32448 29937 ft 389 kts 240°
2026-04-23 02:00 34.48614 -116.35182 29424 ft 391 kts 240°
2026-04-23 02:01 34.47095 -116.37937 28960 ft 395 kts 240°
2026-04-23 02:01 34.45560 -116.40714 28508 ft 397 kts 240°
2026-04-23 02:01 34.44025 -116.43484 28058 ft 391 kts 240°
2026-04-23 02:01 34.42524 -116.46189 27615 ft 383 kts 240°
2026-04-23 02:02 34.41181 -116.48918 27175 ft 372 kts 247°
2026-04-23 02:02 34.40060 -116.51659 26753 ft 365 kts 247°
2026-04-23 02:02 34.38941 -116.54385 26326 ft 358 kts 247°
2026-04-23 02:02 34.37842 -116.57056 26002 ft 349 kts 247°
2026-04-23 02:03 34.36778 -116.59625 25970 ft 333 kts 247°
2026-04-23 02:03 34.35758 -116.62078 25977 ft 322 kts 247°
2026-04-23 02:03 34.34760 -116.64487 25995 ft 319 kts 248°
2026-04-23 02:03 34.33771 -116.66887 25993 ft 318 kts 248°
2026-04-23 02:04 34.32792 -116.69282 25989 ft 317 kts 248°
2026-04-23 02:04 34.31827 -116.71681 25992 ft 317 kts 248°
2026-04-23 02:04 34.30869 -116.74080 25988 ft 317 kts 248°
2026-04-23 02:04 34.29911 -116.76485 26006 ft 318 kts 248°
2026-04-23 02:05 34.28961 -116.78864 25680 ft 318 kts 248°
2026-04-23 02:05 34.28000 -116.81259 25268 ft 315 kts 248°
2026-04-23 02:05 34.27035 -116.83657 24693 ft 318 kts 248°
2026-04-23 02:05 34.26059 -116.86080 24123 ft 326 kts 248°
2026-04-23 02:06 34.25060 -116.88561 23573 ft 330 kts 248°
2026-04-23 02:06 34.24050 -116.91059 22901 ft 332 kts 248°
2026-04-23 02:06 34.23030 -116.93571 22237 ft 334 kts 248°
2026-04-23 02:06 34.22003 -116.96098 21599 ft 336 kts 248°
2026-04-23 02:07 34.21023 -116.98663 20970 ft 336 kts 253°
2026-04-23 02:07 34.20291 -117.01346 20367 ft 338 kts 255°
2026-04-23 02:07 34.19575 -117.04006 19768 ft 337 kts 255°
2026-04-23 02:07 34.18849 -117.06700 19173 ft 338 kts 255°
2026-04-23 02:08 34.18120 -117.09399 18588 ft 340 kts 254°
2026-04-23 02:08 34.17382 -117.12129 17972 ft 342 kts 255°
2026-04-23 02:08 34.16641 -117.14866 17316 ft 343 kts 255°
2026-04-23 02:08 34.15902 -117.17579 17014 ft 335 kts 255°
2026-04-23 02:09 34.15181 -117.20193 16997 ft 320 kts 255°
2026-04-23 02:09 34.14485 -117.22702 17006 ft 312 kts 255°
2026-04-23 02:09 34.13802 -117.25168 16974 ft 308 kts 255°
2026-04-23 02:09 34.13120 -117.27639 16401 ft 312 kts 255°
2026-04-23 02:10 34.12434 -117.30132 15828 ft 314 kts 255°
2026-04-23 02:10 34.11754 -117.32648 15268 ft 316 kts 255°
2026-04-23 02:10 34.11071 -117.35179 14720 ft 318 kts 255°
2026-04-23 02:10 34.10387 -117.37725 14175 ft 320 kts 255°
2026-04-23 02:11 34.09703 -117.40279 13609 ft 321 kts 255°
2026-04-23 02:11 34.09019 -117.42843 13013 ft 321 kts 255°
2026-04-23 02:11 34.08338 -117.45415 12430 ft 322 kts 255°
2026-04-23 02:11 34.07675 -117.47935 12064 ft 305 kts 255°
2026-04-23 02:12 34.07040 -117.50329 11999 ft 297 kts 255°
2026-04-23 02:12 34.06326 -117.52628 12010 ft 297 kts 251°
2026-04-23 02:12 34.05529 -117.54925 11985 ft 296 kts 250°
2026-04-23 02:12 34.04718 -117.57173 11398 ft 291 kts 249°
2026-04-23 02:13 34.03902 -117.59407 10638 ft 290 kts 249°
2026-04-23 02:13 34.03091 -117.61630 10161 ft 290 kts 249°
2026-04-23 02:13 34.02277 -117.63869 10026 ft 293 kts 249°
2026-04-23 02:13 34.01482 -117.66126 9801 ft 292 kts 252°
2026-04-23 02:14 34.00866 -117.68446 9509 ft 290 kts 258°
2026-04-23 02:14 34.00522 -117.70825 9222 ft 283 kts 263°
2026-04-23 02:14 34.00263 -117.73104 9041 ft 269 kts 264°
2026-04-23 02:14 34.00025 -117.75330 9023 ft 267 kts 264°
2026-04-23 02:15 33.99573 -117.79770 8671 ft 268 kts 264°
2026-04-23 02:15 33.99351 -117.81991 8152 ft 267 kts 264°
2026-04-23 02:15 33.99133 -117.84201 7768 ft 265 kts 264°
2026-04-23 02:16 33.98921 -117.86375 7365 ft 264 kts 264°
2026-04-23 02:16 33.98708 -117.88577 6983 ft 264 kts 264°
2026-04-23 02:16 33.98494 -117.90768 6700 ft 263 kts 264°
2026-04-23 02:16 33.98282 -117.92959 6434 ft 265 kts 264°
2026-04-23 02:17 33.98065 -117.95171 6145 ft 265 kts 264°
2026-04-23 02:17 33.97847 -117.97378 5867 ft 267 kts 264°
2026-04-23 02:17 33.97626 -117.99597 5590 ft 266 kts 264°
2026-04-23 02:17 33.97407 -118.01799 5313 ft 264 kts 264°
2026-04-23 02:18 33.97188 -118.03989 5078 ft 259 kts 264°
2026-04-23 02:18 33.96977 -118.06103 4867 ft 250 kts 265°
2026-04-23 02:18 33.96774 -118.08133 4572 ft 244 kts 264°
2026-04-23 02:18 33.96574 -118.10139 4295 ft 239 kts 264°
2026-04-23 02:19 33.96376 -118.12111 4024 ft 235 kts 264°
2026-04-23 02:19 33.96179 -118.14052 3750 ft 232 kts 263°
2026-04-23 02:19 33.95987 -118.15961 3555 ft 224 kts 264°
2026-04-23 02:19 33.95803 -118.17794 3426 ft 218 kts 264°
2026-04-23 02:20 33.95622 -118.19602 3175 ft 217 kts 264°
2026-04-23 02:20 33.95442 -118.21393 2887 ft 213 kts 264°
2026-04-23 02:20 33.95268 -118.23130 2613 ft 204 kts 264°
2026-04-23 02:20 33.95100 -118.24797 2341 ft 196 kts 264°
2026-04-23 02:21 33.94938 -118.26401 2080 ft 189 kts 264°
2026-04-23 02:21 33.94788 -118.27889 1873 ft 170 kts 264°
2026-04-23 02:21 33.94652 -118.29235 1643 ft 152 kts 263°
2026-04-23 02:21 33.94530 -118.30435 1421 ft 140 kts 263°
2026-04-23 02:22 33.94421 -118.31573 1201 ft 134 kts 263°
2026-04-23 02:22 33.94306 -118.32672 1066 ft 132 kts 264°
2026-04-23 02:22 33.94195 -118.33775 859 ft 133 kts 262°
2026-04-23 02:22 33.94085 -118.34878 643 ft 132 kts 263°
2026-04-23 02:23 33.93977 -118.35950 484 ft 129 kts 264°
2026-04-23 02:23 33.93868 -118.37034 305 ft 128 kts 263°
2026-04-23 02:23 33.93761 -118.38080 167 ft 125 kts 262°
2026-04-23 02:23 33.93661 -118.39046 95 ft 105 kts 262°
2026-04-23 02:24 33.93589 -118.39716 94 ft 56 kts 263°
2026-04-23 02:24 33.93562 -118.39993 96 ft 24 kts 265°
2026-04-23 02:24 33.93576 -118.40202 96 ft 23 kts 286°
2026-04-23 02:24 33.93617 -118.40350 95 ft 15 kts 287°
2026-04-23 02:25 33.93617 -118.40505 95 ft 18 kts 257°
2026-04-23 02:25 33.93603 -118.40659 95 ft 20 kts 263°
2026-04-23 02:25 33.93600 -118.40822 95 ft 19 kts 285°
2026-04-23 02:25 33.93679 -118.40898 96 ft 15 kts 352°
2026-04-23 02:26 33.93752 -118.40910 95 ft 10 kts 353°
2026-04-23 02:26 33.93822 -118.40919 94 ft 2 kts 354°
2026-04-23 02:26 33.93873 -118.40886 93 ft 15 kts 74°
2026-04-23 02:26 33.93923 -118.40809 93 ft 15 kts
2026-04-23 02:27 33.93981 -118.40817 94 ft 8 kts
2026-04-23 02:27 33.94005 -118.40782 93 ft 4 kts 72°
2026-04-23 02:27 33.94012 -118.40758 96 ft 2 kts 71°
2026-04-23 02:27 33.94013 -118.40756 96 ft 1 kts 71°
2026-04-23 02:28 33.94014 -118.40751 95 ft 0 kts 71°